Terminal Aerodrome Forecast
Issued by NWS Wakefield, VA

Home | Current Version | Previous Version | Text Only | Print | Product List | Glossary On
Versions: 1 2 3 4 5 6 7 8 9 10 11 12 13 14 15 16 17
000
FTUS41 KAKQ 262343
TAFRIC
TAF
KRIC 262343Z 2700/2724 20011KT P6SM SCT100 OVC200
     FM270400 24010KT P6SM -RA SCT025 OVC050
     FM270600 01012KT 4SM -RA OVC015
     FM271400 01013G19KT 4SM -RA BR OVC007
     FM271800 36007KT P6SM BKN020=

USA.gov is the U.S. government's official web portal to all federal, state and local government web resources and services.